Location: Charlotte
(35.2269°N, 80.8433°W)
Time: 10:26:28
(UTC-04:00)

ISS - Visible Passes

Search period start: 30 May 2015 00:00
Search period end: 09 June 2015 00:00
Orbit: 399 x 404 km, 51.6° (Epoch: 30 May)

Date Brightness Start Highest point End Pass type
(mag) Time Alt. Az. Time Alt. Az. Time Alt. Az.
30 May 0.0 04:37:48 10° N 04:39:34 14° NNE 04:41:24 10° ENE visible
30 May -1.6 21:15:03 10° SSE 21:16:55 15° SE 21:18:53 10° E visible
30 May -2.0 22:50:02 10° WSW 22:53:06 40° NW 22:56:11 10° NE visible
31 May -2.3 05:19:54 10° NW 05:23:05 49° NE 05:26:16 10° ESE visible
31 May -3.4 21:56:35 10° SW 21:59:49 88° NNW 22:03:04 10° NE visible
31 May 0.2 23:35:13 10° NW 23:36:40 12° NNW 23:38:03 10° N visible
01 Jun -0.9 04:26:56 10° NNW 04:29:42 25° NNE 04:32:31 10° E visible
01 Jun -2.9 21:03:35 10° SSW 21:06:36 38° SE 21:09:39 10° ENE visible
01 Jun -0.4 22:40:41 10° W 22:43:08 19° NNW 22:45:33 10° NNE visible
02 Jun -0.1 03:34:12 10° N 03:36:13 15° NNE 03:38:18 10° ENE visible
02 Jun -3.4 05:09:41 10° NW 05:12:55 59° SW 05:16:07 10° SE visible
02 Jun -1.5 21:46:42 10° WSW 21:49:41 34° NW 21:52:41 10° NNE visible
03 Jun 0.4 02:42:30 10° NNE 02:42:38 10° NNE 02:42:51 10° NNE visible
03 Jun -2.8 04:16:25 10° NW 04:19:38 60° NE 04:22:52 10° ESE visible
03 Jun 0.3 22:32:14 10° NW 22:33:16 11° NNW 22:34:14 10° N visible
04 Jun -1.3 03:23:22 10° NNW 03:28:43 13° E 03:29:11 10° E visible
04 Jun -2.1 05:02:30 21° SW 05:02:35 21° SW 05:05:07 10° S visible
04 Jun -0.2 21:37:25 10° WNW 21:39:41 17° NNW 21:41:55 10° NNE visible
